Wetbulb
62.30 62.04 61.86 61.64 61.84 61.91 61.93 61.91 62.00 62.11 61.87 61.95 62.19 62.03 62.22 62.29 61.56 65.24 61.52 67.59 75.93 78.74 78.89 76.95 77.13 74.97 74.61 67.73 64.84 65.71 60.64 58.14 60.39 60.72 61.68 63.93 62.68 65.90 66.99 64.91 66.60 68.14 66.76 68.27 70.11
62.15 61.69 61.49 61.38 61.38 61.43 61.41 61.43 61.48 61.65 61.79 61.57 61.61 61.97 62.27 62.24 63.23 60.16 72.35 74.77 77.61 79.01 74.54 74.69 67.94 68.26 64.34 67.09 65.94 65.23 60.87 61.11 63.47 64.22 63.67 63.64 63.15 64.41 64.52 64.59 64.34 65.79 68.56 69.41 70.03
61.73 61.50 60.96 60.88 60.95 60.98 60.87 60.95 60.84 60.94 61.09 60.92 61.31 61.84 62.21 62.23 62.40 60.84 75.09 76.02 78.72 78.46 72.94 72.87 68.68 66.95 63.42 67.62 66.90 64.67 60.72 63.64 65.13 65.48 65.47 64.32 64.42 66.33 64.36 62.57 64.54 64.90 66.58 68.08 68.50
61.11 60.49 60.23 60.36 60.52 60.34 60.39 60.47 60.25 60.46 60.51 60.78 61.58 61.70 62.16 63.70 54.67 66.46 76.05 77.22 76.61 72.32 71.09 70.39 66.98 64.33 64.10 64.18 65.98 62.59 64.46 64.97 65.61 66.72 66.51 64.34 65.71 64.41 65.56 65.13 66.89 67.77 68.13 67.99 67.49
59.92 59.68 59.48 59.44 59.47 59.56 59.58 59.59 59.46 59.72 60.08 61.42 62.04 61.73 63.60 60.65 57.39 68.95 76.75 76.70 70.49 70.11 69.01 67.98 63.99 65.65 63.87 61.86 62.40 63.11 64.17 65.70 66.47 66.57 66.26 66.56 64.89 64.76 63.94 66.70 67.73 68.11 67.92 67.29 67.72
59.08 58.79 58.70 58.73 58.82 58.98 58.93 58.87 58.84 59.47 60.42 62.61 62.21 61.19 62.81 54.84 62.53 64.97 67.75 67.59 62.77 67.81 68.04 67.40 64.35 66.81 66.03 62.88 61.96 66.14 65.14 65.64 66.38 66.06 66.99 64.71 64.76 65.64 64.65 66.91 66.55 66.90 66.90 67.39 67.41
58.47 58.25 58.27 58.25 58.48 58.61 58.51 58.25 58.48 59.39 60.93 63.57 62.63 64.17 60.53 58.58 63.37 64.06 63.19 63.96 65.10 65.65 66.28 67.10 66.12 64.91 66.08 64.31 66.81 66.14 63.34 65.07 65.42 65.78 65.92 65.70 63.85 63.70 65.49 66.33 65.30 65.74 66.58 66.97 67.51
57.96 57.92 57.88 57.75 57.85 57.86 57.81 57.48 58.25 59.80 62.07 64.80 63.21 63.53 59.13 62.11 63.21 61.50 63.09 62.58 66.44 67.32 67.02 66.32 66.22 64.75 65.31 66.79 65.24 63.31 63.08 59.75 64.18 65.05 65.21 64.92 61.09 65.14 66.03 65.37 64.25 65.36 66.30 66.92 67.74
57.58 57.54 57.38 57.31 57.42 57.12 56.73 57.22 58.78 61.43 63.94 65.61 64.42 63.34 57.92 63.77 58.64 61.23 61.99 60.57 62.43 65.22 64.61 65.79 64.60 63.07 64.32 62.02 56.67 59.46 55.87 59.27 60.33 64.58 64.51 65.00 62.13 65.80 66.57 65.40 64.57 65.30 66.95 67.54 68.39
57.03 57.02 56.97 56.93 56.80 56.28 55.95 57.42 64.00 61.90 64.83 67.31 66.50 61.50 62.22 57.67 60.30 60.91 62.47 62.20 60.56 60.91 61.13 61.82 62.01 60.15 60.75 60.38 50.83 51.69 53.27 59.81 59.67 62.10 63.51 62.05 63.28 65.59 66.87 65.40 65.08 65.42 66.75 67.37 68.05
56.55 56.53 56.64 56.46 55.98 55.55 56.92 63.63 62.95 62.20 63.43 60.93 61.16 60.31 59.53 60.77 62.60 60.75 61.87 60.73 60.15 58.94 56.22 59.58 57.32 55.79 58.32 59.64 57.64 57.91 56.54 58.77 59.53 61.38 61.86 61.65 63.07 64.93 66.90 66.14 65.15 65.82 66.49 66.80 67.85
55.92 56.10 56.05 55.94 55.45 55.13 57.69 62.89 61.65 62.59 57.63 61.79 61.51 60.55 62.10 61.97 57.89 59.72 61.81 57.11 55.87 53.37 56.12 55.72 54.57 58.35 59.79 62.06 60.87 59.06 58.36 57.06 59.86 61.31 61.06 61.37 62.60 65.23 66.47 66.85 66.67 66.03 66.80 67.18 68.16
55.61 55.56 55.42 55.15 54.76 59.67 63.64 62.67 65.32 65.04 57.89 59.16 60.82 59.05 59.62 60.27 57.43 57.67 58.99 57.76 54.89 53.23 54.16 53.04 56.35 58.96 58.36 58.32 58.91 58.62 57.44 57.15 57.32 59.66 60.07 58.95 60.02 63.35 63.72 67.16 68.16 67.77 67.71 68.38 68.33
55.42 55.36 54.91 53.93 56.49 62.98 62.96 65.14 65.92 64.87 53.82 56.51 57.99 59.27 60.08 59.53 55.98 60.04 60.46 57.94 55.34 52.91 53.97 54.09 56.96 56.94 56.05 56.56 58.47 56.27 59.76 58.91 57.73 56.39 52.65 59.31 52.82 57.52 61.43 64.37 66.28 67.33 67.52 67.53 68.56
55.28 54.85 54.05 53.41 58.30 61.09 63.78 65.38 65.32 62.64 46.80 57.89 57.95 63.57 60.75 56.89 57.13 56.51 61.44 57.94 53.72 53.77 54.13 52.46 53.99 54.27 54.10 55.65 58.28 57.51 60.40 59.37 58.54 56.63 55.11 55.28 53.51 57.32 59.97 60.42 61.74 66.49 67.65 68.44 68.86
54.56 54.33 53.48 59.47 60.00 63.46 65.03 65.15 63.60 52.84 46.53 55.45 58.35 56.55 56.22 56.30 56.75 57.94 57.58 59.30 57.55 54.49 54.93 54.07 57.74 55.92 55.38 57.13 57.76 59.24 58.41 58.48 58.11 56.05 50.51 53.93 54.57 56.10 58.35 58.92 58.91 63.00 66.61 68.56 69.21
53.47 52.61 52.62 58.73 59.42 63.46 63.89 62.29 53.54 48.32 56.34 54.16 55.09 56.93 55.34 53.90 54.22 55.83 54.64 52.75 50.92 49.09 49.95 52.68 53.27 55.47 56.23 53.59 56.31 56.43 55.10 50.57 49.95 49.73 49.04 55.07 55.53 56.76 58.26 58.89 60.13 63.12 66.62 68.73 69.49
51.89 51.33 56.19 60.19 62.77 63.69 62.70 57.10 49.19 54.29 53.41 58.17 56.14 55.90 53.04 54.77 54.01 54.33 53.70 50.62 53.16 52.54 50.24 48.87 47.43 52.83 55.60 53.34 52.12 53.28 54.24 50.46 46.95 46.97 49.26 55.81 49.48 55.78 61.08 62.49 63.86 64.79 67.22 69.10 69.02
51.08 61.29 62.06 64.77 64.79 63.82 59.22 51.54 51.96 53.96 55.92 55.12 55.60 53.22 53.65 54.36 54.10 53.90 53.04 51.92 52.83 53.17 49.51 49.14 49.47 55.37 55.34 55.72 54.29 51.99 51.46 55.20 50.80 51.46 48.78 52.97 55.17 58.32 61.58 62.34 62.90 62.65 66.25 67.21 68.75
55.11 59.19 59.81 65.48 66.10 63.00 56.20 50.21 55.15 57.53 56.16 56.35 52.23 55.36 52.88 53.84 52.63 53.06 52.90 54.65 53.54 55.01 55.46 52.61 49.22 54.53 54.86 56.01 55.43 53.04 55.29 49.47 50.03 46.13 45.91 50.74 53.53 54.96 59.62 60.94 61.64 62.93 64.13 65.95 67.71
57.39 59.27 63.82 65.99 65.17 59.66 52.58 53.90 56.52 58.38 56.63 54.09 54.22 54.81 55.05 54.39 54.88 53.07 53.50 55.34 55.62 55.04 55.83 53.89 51.87 52.09 54.34 52.03 51.20 51.73 50.45 52.03 52.59 50.44 47.53 46.84 50.68 57.60 58.84 59.60 60.47 63.31 65.06 65.63 66.71
58.21 54.26 65.78 65.53 56.64 56.88 54.24 56.10 55.04 57.20 57.40 55.11 57.11 57.01 55.98 56.03 54.51 54.01 53.52 55.41 57.58 56.34 53.17 54.68 51.90 49.37 51.37 55.17 55.90 54.26 52.48 52.11 49.47 49.51 50.83 50.54 50.97 58.11 59.29 59.72 61.12 64.02 65.08 66.49 67.23
56.55 57.23 65.32 63.17 52.40 53.07 55.74 55.05 57.30 56.27 55.69 55.40 54.25 57.02 58.07 55.90 54.10 55.57 55.87 57.04 57.22 55.75 53.90 55.16 51.02 47.44 49.50 52.79 54.60 52.05 53.06 53.76 53.06 52.85 51.37 48.49 51.14 58.73 60.00 61.31 62.49 64.58 65.41 68.85 69.13
56.56 54.14 56.94 59.59 58.30 56.03 56.41 55.52 54.77 57.80 55.97 57.00 56.88 58.30 57.20 55.91 57.30 55.52 55.02 56.12 57.12 56.39 63.11 60.60 52.47 49.97 47.49 50.63 53.23 50.92 51.91 53.32 52.72 49.47 50.02 50.76 53.23 55.94 58.71 61.34 63.85 66.83 67.94 68.79 70.91
57.30 54.47 59.58 56.37 54.56 54.58 56.08 57.25 55.03 54.65 57.47 57.18 56.94 57.33 57.05 55.29 55.88 55.53 57.07 56.97 56.61 61.28 57.81 54.86 50.53 52.12 52.25 52.92 53.79 52.76 52.05 52.15 51.15 52.38 50.40 53.04 53.19 59.43 60.69 63.00 64.43 67.83 69.27 69.64 70.52
55.41 56.07 57.75 56.40 58.09 57.54 54.06 54.33 55.34 57.22 57.37 55.65 55.79 57.85 58.02 56.48 57.75 56.91 59.45 57.65 57.38 57.17 55.22 55.57 51.65 53.52 51.89 53.09 52.98 51.99 53.25 53.23 52.63 52.46 53.20 53.80 55.46 62.81 62.91 62.35 62.25 69.16 69.93 70.05 70.70
59.63 59.07 55.85 51.69 53.39 52.07 55.11 55.52 55.94 58.19 59.32 58.98 59.00 57.85 57.49 59.53 62.26 62.74 63.04 62.61 61.60 59.82 56.54 54.75 53.06 52.11 49.76 53.07 52.27 49.66 52.53 53.28 53.70 54.39 54.14 51.56 58.42 63.20 62.59 62.85 65.07 69.87 70.32 70.16 71.22
MSLP
1016.89 1016.49 1016.01 1015.49 1014.91 1014.27 1013.64 1013.03 1012.38 1011.96 1011.77 1011.24 1010.38 1009.76 1009.46 1009.06 1007.58 1006.20 1004.88 1003.89 1003.91 1003.50 1003.89 1002.75 1001.92 1000.48 999.25 1001.66 1004.02 1002.30 1000.70 1001.08 1001.26 1001.95 1002.20 1002.70 1003.13 1003.75 1004.43 1005.16 1005.62 1006.37 1008.26 1009.67 1010.82
1016.94 1016.37 1015.90 1015.38 1014.87 1014.31 1013.56 1012.91 1012.28 1011.74 1011.27 1011.00 1010.40 1009.73 1009.42 1009.02 1007.33 1004.96 1003.85 1003.59 1003.51 1003.54 1003.76 1002.31 1001.26 1001.48 1003.24 1002.49 1002.17 1002.02 1001.41 1001.09 1001.14 1001.60 1001.90 1002.73 1003.40 1003.90 1004.33 1004.90 1005.60 1006.65 1008.18 1009.66 1010.35
1017.07 1016.51 1015.93 1015.36 1014.66 1014.08 1013.52 1012.84 1012.14 1011.52 1011.04 1010.58 1010.25 1009.74 1009.38 1009.02 1006.30 1003.01 1003.59 1003.62 1003.46 1003.40 1003.33 1002.13 1001.08 1002.42 1001.68 1000.40 1001.48 1001.42 1001.49 1001.34 1001.12 1001.26 1001.74 1002.65 1002.98 1003.26 1003.97 1004.61 1005.29 1006.66 1008.18 1009.39 1010.00
1017.13 1016.56 1015.92 1015.32 1014.68 1013.97 1013.21 1012.60 1011.94 1011.34 1010.74 1010.34 1009.95 1009.67 1009.29 1008.11 1004.66 1003.04 1003.45 1003.55 1003.57 1003.24 1002.73 1001.62 1000.11 1000.53 1000.58 1000.73 1001.43 1000.90 1001.16 1001.38 1001.47 1001.42 1001.46 1001.96 1002.35 1003.20 1003.39 1004.01 1005.21 1006.74 1008.16 1008.99 1009.56
1017.10 1016.53 1015.92 1015.29 1014.63 1013.88 1013.07 1012.31 1011.66 1011.16 1010.55 1010.08 1009.68 1009.58 1008.68 1006.31 1002.96 1002.58 1003.22 1003.34 1003.16 1002.98 1001.91 1000.37 999.05 998.64 999.68 1001.68 1002.72 1001.12 1000.75 1001.19 1001.48 1001.35 1001.83 1001.69 1002.11 1003.07 1003.68 1004.40 1005.40 1006.81 1008.03 1008.67 1009.04
1017.14 1016.52 1015.83 1015.10 1014.43 1013.71 1013.04 1012.23 1011.43 1010.84 1010.33 1009.81 1009.63 1009.62 1008.11 1004.34 1001.84 1001.72 1002.15 1002.52 1002.25 1001.96 1001.08 999.78 998.86 998.58 999.73 1001.37 1002.06 1000.47 1000.48 1001.01 1001.03 1001.22 1001.53 1001.97 1002.58 1003.26 1004.17 1004.98 1005.88 1006.93 1007.82 1008.36 1008.60
1017.26 1016.54 1015.84 1014.98 1014.15 1013.35 1012.68 1011.99 1011.20 1010.55 1010.02 1009.55 1009.52 1009.02 1006.10 1002.92 1001.78 1001.66 1001.73 1001.44 1001.31 1000.95 1000.18 999.42 999.11 998.97 998.64 1000.84 1000.14 1000.02 1000.50 1000.75 1000.88 1001.14 1002.46 1003.35 1003.55 1003.51 1004.33 1005.20 1006.18 1006.98 1007.51 1007.90 1008.15
1017.31 1016.51 1015.73 1014.84 1013.89 1012.93 1012.12 1011.56 1010.82 1010.08 1009.59 1009.33 1009.37 1008.33 1004.20 1001.56 1001.64 1001.82 1001.50 1001.02 1000.69 1000.40 1000.36 999.73 999.51 999.37 998.62 999.57 1000.06 999.99 1000.46 1001.46 1000.44 1000.88 1003.58 1004.93 1003.59 1003.88 1004.40 1005.11 1005.93 1006.62 1007.14 1007.56 1007.73
1017.44 1016.64 1015.77 1014.75 1013.68 1012.64 1011.60 1010.74 1010.05 1009.44 1009.12 1009.08 1008.59 1006.61 1002.69 1002.16 1001.61 1001.18 1001.21 1000.68 1000.39 1000.49 1000.32 1000.04 1000.01 999.74 999.12 1000.08 1002.90 1004.05 1004.45 1001.23 1000.47 1000.41 1001.56 1002.36 1002.67 1003.44 1004.08 1004.78 1005.50 1006.13 1006.62 1007.12 1007.54
1017.40 1016.57 1015.69 1014.68 1013.52 1012.59 1011.32 1009.27 1008.66 1008.88 1008.34 1008.01 1006.70 1005.28 1002.06 1000.52 1000.04 1000.31 1000.63 1000.54 999.99 1000.06 1000.05 999.90 999.81 999.70 999.35 1000.90 1006.58 1006.93 1005.26 1001.05 1000.19 1000.18 1000.06 1000.26 1001.50 1002.69 1003.53 1004.21 1005.12 1005.70 1006.24 1006.76 1007.15
1017.39 1016.54 1015.61 1014.52 1013.34 1012.66 1011.48 1008.49 1008.11 1008.16 1006.55 1004.46 1003.19 1002.04 1000.76 1000.55 1000.79 1001.03 1000.54 1000.68 1000.20 999.92 999.57 999.38 999.27 999.00 998.94 1000.64 1001.62 1004.35 1003.10 1000.35 999.76 999.61 999.63 999.83 1000.80 1002.17 1002.97 1003.70 1004.43 1005.07 1005.78 1006.25 1006.66
1017.29 1016.45 1015.46 1014.32 1013.10 1011.97 1011.91 1008.58 1007.41 1007.04 1005.07 1003.05 1001.77 1001.09 1000.47 1000.52 1000.49 1000.30 1000.48 1000.50 1000.12 999.56 999.36 999.14 998.23 998.48 998.44 999.74 1000.70 1001.74 1000.14 1000.10 999.30 999.25 999.41 999.82 1000.10 1001.92 1003.26 1003.83 1004.09 1004.54 1005.21 1005.77 1006.23
1017.25 1016.34 1015.37 1014.01 1012.70 1011.17 1008.86 1007.41 1007.00 1006.26 1004.63 1001.28 1000.36 1000.06 1000.01 1000.35 1000.12 999.23 999.91 999.97 999.57 999.39 998.76 998.34 997.58 997.75 997.89 997.98 998.20 998.44 998.35 998.88 999.24 998.59 998.49 998.96 1000.43 1002.42 1006.63 1004.45 1003.86 1003.89 1004.51 1005.21 1005.70
1017.16 1016.32 1015.44 1014.16 1012.37 1009.60 1007.44 1006.92 1006.48 1006.20 1004.05 999.95 999.50 999.24 999.60 999.76 999.62 999.15 999.10 999.66 999.36 998.81 998.44 997.89 997.44 996.79 997.21 997.24 997.26 996.86 996.95 997.24 997.30 997.99 998.06 998.86 1000.50 1003.50 1004.73 1003.88 1003.92 1003.56 1003.72 1004.29 1005.08
1016.92 1016.22 1015.43 1015.72 1013.35 1009.36 1007.30 1006.90 1006.69 1005.92 1002.30 999.34 998.82 999.34 998.80 999.42 998.30 998.76 998.64 999.41 998.94 998.46 998.43 997.52 997.05 996.78 996.78 996.61 996.66 996.57 996.30 996.87 997.05 997.45 997.95 998.44 999.63 1003.18 1003.58 1003.80 1004.31 1003.48 1003.18 1003.32 1003.92
1016.68 1016.16 1015.76 1012.22 1012.71 1009.29 1007.76 1007.03 1006.31 1004.69 1000.00 998.05 998.30 998.53 998.77 998.85 998.10 998.18 998.86 999.29 998.94 998.55 998.18 997.57 996.89 996.99 996.93 996.91 996.86 996.91 996.84 996.86 997.29 997.58 997.64 997.98 999.02 1003.22 1004.73 1004.32 1005.12 1004.54 1003.48 1002.43 1002.75
1016.22 1015.50 1015.96 1013.96 1009.92 1008.53 1008.01 1006.87 1004.94 1001.73 998.21 997.39 997.14 997.64 998.06 997.99 998.16 998.11 998.70 998.85 998.56 998.45 997.94 997.84 997.13 997.18 997.29 997.31 997.17 997.24 997.12 996.98 997.01 997.02 996.89 997.05 999.11 1002.35 1002.82 1003.02 1002.48 1002.39 1001.60 1001.32 1001.72
1015.34 1014.26 1012.38 1011.40 1009.09 1008.67 1007.88 1006.31 1003.36 999.59 997.41 997.20 997.51 997.09 997.26 996.98 997.52 997.55 998.20 998.26 998.42 998.04 997.51 997.08 996.88 997.09 997.10 997.39 997.06 996.98 996.88 996.84 996.65 996.28 996.12 997.34 999.88 1002.02 1003.67 1001.58 1000.73 1000.82 1000.04 1000.07 1000.91
1014.60 1011.07 1009.96 1008.63 1009.26 1008.76 1007.43 1004.63 1001.48 998.89 997.72 997.24 997.00 997.08 996.64 996.58 996.82 996.86 997.36 997.42 997.44 997.75 997.21 996.25 995.82 995.56 996.22 996.65 997.32 996.69 996.40 996.83 996.61 996.32 996.32 997.31 998.63 999.14 1000.14 999.36 998.25 997.80 998.22 999.12 999.95
1014.60 1010.76 1007.36 1006.52 1007.51 1007.81 1006.46 1003.46 1000.65 999.32 998.76 998.47 997.68 996.67 996.16 995.98 996.53 996.43 996.26 996.47 996.45 996.64 996.94 996.17 995.59 994.68 995.26 996.20 996.59 996.66 996.23 996.32 996.58 996.74 996.50 997.04 998.03 997.79 998.46 997.60 996.73 997.26 997.62 998.41 999.28
1013.83 1009.16 1006.12 1006.53 1007.13 1006.80 1004.69 1002.40 1000.53 999.37 999.48 999.29 998.12 997.06 996.45 995.95 995.87 995.94 995.62 995.74 995.91 995.88 996.27 996.45 995.95 995.35 995.10 995.76 996.10 996.41 996.34 996.24 995.94 995.98 995.94 995.89 996.36 996.43 996.81 996.22 995.87 996.54 996.81 997.54 998.28
1012.07 1007.72 1006.16 1006.49 1006.41 1005.16 1003.62 1002.12 1000.62 999.60 999.50 999.58 998.85 998.13 997.15 996.26 995.87 995.73 995.37 995.05 995.08 995.81 995.88 996.34 996.17 995.47 995.00 995.27 995.77 995.81 995.75 996.16 995.74 995.76 995.28 995.18 995.90 995.08 995.59 995.81 995.88 996.33 996.74 997.14 997.23
1012.23 1007.59 1005.62 1006.05 1004.97 1003.67 1002.40 1001.49 1000.16 1000.12 999.77 999.26 999.06 998.52 997.66 997.23 996.74 996.25 995.57 995.10 995.51 996.16 995.97 996.01 996.44 995.69 994.91 994.78 995.21 995.60 995.50 995.17 995.33 994.90 995.03 994.90 995.05 995.49 995.46 995.83 996.21 996.33 997.04 997.60 997.87
1013.01 1007.56 1005.35 1005.49 1004.82 1003.64 1001.89 1000.58 1000.16 1000.19 1000.08 999.35 999.00 998.62 998.22 997.80 997.28 996.66 995.62 995.37 995.93 996.40 996.72 996.20 995.96 995.84 994.76 994.21 993.96 994.78 995.13 995.10 994.92 994.60 994.41 994.41 994.60 995.12 995.28 995.95 996.82 997.21 997.91 998.63 998.82
1012.80 1007.55 1005.79 1004.33 1003.89 1003.41 1002.31 1000.95 999.90 999.68 999.93 999.99 999.69 999.41 998.96 998.15 997.17 996.59 996.17 995.51 996.12 996.76 996.80 996.68 996.14 995.70 994.92 994.47 993.95 993.78 994.24 994.76 995.04 994.66 994.36 994.42 995.25 996.28 995.55 996.77 997.38 997.73 998.67 999.31 999.42
1012.24 1009.77 1008.14 1006.74 1004.85 1003.34 1002.07 1001.57 1000.62 999.76 999.64 999.59 999.62 998.99 998.79 998.22 997.90 997.99 997.07 996.07 996.02 996.30 996.56 996.55 996.25 995.96 995.29 994.62 994.20 994.07 993.80 993.72 994.10 994.57 994.41 994.61 995.26 995.92 997.50 997.26 997.55 998.36 998.92 999.60 999.94
1012.71 1011.72 1010.38 1007.60 1005.41 1004.06 1002.59 1001.85 1001.40 1000.76 999.95 999.79 999.37 999.02 998.51 998.96 999.51 999.14 998.30 997.88 997.30 996.46 995.86 996.10 996.05 995.90 995.48 994.89 994.27 994.31 993.94 993.58 993.34 993.79 994.22 994.50 995.26 996.11 997.47 997.69 997.75 998.09 998.96 999.68 1000.21
Wind_Speed
20 19 19 20 20 21 21 21 21 20 17 18 20 20 17 17 24 7 11 2 4 16 7 13 17 16 9 30 20 9 9 12 17 14 12 12 14 16 15 18 14 16 20 24 22
20 21 21 21 21 21 21 21 21 21 19 17 17 18 17 17 9 14 2 5 10 11 10 17 9 34 5 8 10 4 10 12 18 13 13 16 15 15 14 12 7 19 25 22 21
20 21 22 22 23 22 21 21 22 21 20 19 16 16 15 14 10 9 3 5 9 10 13 19 6 12 2 8 15 17 12 10 14 15 16 15 9 14 8 14 16 24 24 24 19
20 21 22 22 23 23 23 22 22 21 21 18 16 14 13 7 5 6 8 8 8 10 15 19 20 14 21 22 10 14 14 13 11 12 6 12 9 10 8 15 19 22 23 22 21
21 21 21 22 23 23 23 23 23 21 20 16 13 10 8 9 13 11 11 10 9 10 15 19 20 9 20 21 22 8 14 13 12 10 9 5 14 12 13 15 20 22 21 19 18
21 22 23 23 23 23 23 23 23 21 19 15 10 9 7 14 5 4 8 12 13 15 17 19 16 10 14 18 16 11 15 13 13 12 6 12 11 13 14 15 18 21 19 17 17
21 22 23 24 25 25 23 22 22 21 17 14 7 7 11 16 2 2 7 10 13 18 17 16 9 16 8 20 8 12 13 13 13 10 12 16 5 14 16 16 19 18 17 17 16
21 23 24 25 26 27 25 23 22 21 15 10 6 9 9 6 4 5 10 11 11 15 13 16 10 17 14 11 10 13 6 5 15 13 20 25 8 14 17 18 18 18 16 15 16
21 22 24 26 27 27 28 27 24 17 13 9 7 10 15 3 11 14 13 13 12 13 15 12 12 15 18 2 12 11 13 12 10 10 20 15 15 17 17 17 17 16 15 14 13
21 23 24 26 27 27 31 29 7 8 10 9 11 10 10 12 8 7 13 13 10 12 15 15 13 14 14 7 8 23 20 8 13 10 11 14 16 18 17 18 16 16 15 14 15
22 23 24 27 28 25 18 9 5 7 12 15 12 13 2 3 3 7 10 11 12 12 16 17 15 15 19 19 36 32 27 14 8 4 11 10 18 19 18 17 17 17 16 16 16
22 24 25 27 29 28 11 9 8 8 13 17 18 13 15 0 8 13 15 13 16 16 16 17 19 20 18 21 23 30 21 17 5 4 6 22 17 19 17 16 17 16 17 17 17
22 24 25 28 30 13 10 6 8 11 8 15 14 13 13 15 13 12 17 17 14 17 17 19 20 18 17 16 13 11 9 12 20 4 7 8 11 18 12 13 15 16 17 17 17
22 24 24 31 8 11 8 5 8 9 8 11 11 8 7 8 12 18 18 16 16 17 18 17 21 18 14 18 16 17 11 12 3 4 9 6 6 8 18 13 14 15 17 18 18
23 23 24 9 13 8 10 10 10 7 8 7 12 7 8 12 7 15 13 16 19 17 12 15 18 16 12 15 14 15 10 8 8 10 11 15 6 5 6 5 10 13 17 18 19
24 22 20 4 9 15 14 12 9 7 9 9 9 9 12 15 10 13 10 12 16 18 14 18 10 14 19 13 14 11 17 12 10 12 13 17 9 11 6 8 5 17 24 19 20
25 23 12 10 9 13 11 10 8 10 6 8 6 10 10 12 15 11 12 16 16 14 14 15 18 6 8 11 14 16 16 10 11 12 13 13 10 5 17 21 27 36 26 21 19
28 28 10 10 10 12 8 8 10 15 9 7 3 5 10 13 14 13 11 13 17 17 14 15 15 18 14 17 14 15 17 11 12 14 10 6 11 12 19 27 24 29 28 22 20
32 7 7 9 13 9 8 11 13 13 10 5 6 8 10 8 8 12 15 15 18 20 19 13 16 17 21 14 14 17 14 15 19 20 17 5 4 6 19 20 19 10 22 20 20
9 10 13 10 10 7 9 15 18 16 5 10 13 10 13 13 11 8 13 14 15 19 19 19 14 10 20 14 15 16 14 13 10 15 15 5 9 6 23 22 15 13 19 19 19
6 7 10 7 6 7 11 15 18 14 4 8 15 16 9 8 10 9 9 9 11 14 15 15 16 9 13 10 14 11 14 12 16 13 11 11 5 11 6 7 11 15 14 19 20
7 7 8 7 8 9 13 19 15 9 3 10 9 13 15 13 6 7 15 8 15 9 15 15 11 13 13 13 15 16 17 17 12 12 13 9 5 10 15 9 5 15 9 11 16
7 10 9 8 9 12 17 21 17 8 15 9 11 13 15 13 6 10 14 2 8 5 8 14 11 13 13 16 14 13 19 17 18 17 13 11 3 3 9 9 8 11 11 8 3
7 5 8 8 12 17 19 14 15 12 16 13 12 12 10 11 11 12 10 7 4 7 7 5 14 13 13 12 15 18 16 12 17 12 14 11 7 14 13 15 9 12 9 8 6
7 6 9 4 11 15 18 17 10 15 11 13 11 13 13 14 15 13 11 5 7 8 4 8 14 15 18 16 8 15 17 18 19 18 16 10 7 18 11 16 8 12 12 10 9
7 8 12 13 16 11 10 14 14 12 13 13 11 16 16 13 10 13 12 2 3 12 10 11 13 13 15 17 6 9 14 13 16 18 17 14 6 24 15 12 9 8 13 10 10
9 11 9 10 13 12 11 11 13 16 15 9 12 12 6 8 14 16 17 16 11 14 7 14 12 12 13 16 9 12 12 14 13 17 13 12 12 20 17 15 15 15 14 13 11
Wind_Direction
346 345 343 341 339 337 335 333 331 331 328 321 317 317 324 325 306 239 258 68 177 179 219 236 230 250 272 72 53 10 81 76 96 108 119 91 88 81 113 145 150 145 150 145 155
342 342 341 338 337 336 333 331 329 327 324 322 315 314 322 328 286 268 0 176 204 185 234 253 12 9 301 156 161 255 72 65 108 124 97 100 121 143 140 136 132 130 127 143 160
342 339 338 337 334 334 332 329 326 324 321 319 314 312 318 314 273 222 142 197 212 206 253 282 294 165 255 249 142 88 102 92 67 99 118 129 154 116 151 151 143 135 142 154 162
340 338 335 333 332 331 329 326 324 323 319 317 312 312 316 268 255 75 158 180 217 247 257 270 269 180 246 48 32 107 103 107 115 101 88 114 138 84 113 133 135 139 149 160 167
337 335 332 331 329 328 326 323 322 322 317 315 313 318 288 230 259 134 160 169 202 227 256 280 303 339 75 70 327 147 121 114 126 128 106 117 107 103 101 115 132 142 155 163 173
335 334 331 328 325 324 322 320 319 318 314 312 310 311 247 251 80 143 212 171 234 218 255 268 306 337 133 145 175 204 146 138 142 121 173 121 124 111 112 127 136 148 164 170 179
333 332 329 325 323 321 320 317 314 311 307 307 296 280 262 250 17 252 233 239 221 248 247 268 297 301 339 161 199 142 152 148 144 152 95 33 195 114 131 138 148 159 170 174 182
332 330 329 324 322 319 317 314 308 302 293 292 281 261 262 52 291 231 250 244 236 239 269 290 305 286 291 123 197 214 23 220 151 161 120 130 167 137 143 151 159 166 175 175 178
331 328 326 323 320 318 316 310 298 281 271 275 251 232 263 126 221 228 230 234 216 237 246 260 281 273 278 113 15 346 228 191 143 183 155 190 142 148 158 161 166 170 173 174 176
331 328 324 321 320 320 319 295 278 289 223 246 259 267 255 238 191 179 204 242 241 226 230 237 247 251 256 92 106 284 286 195 165 166 197 191 145 156 168 167 173 178 174 178 179
330 326 323 322 319 320 333 322 237 188 228 265 305 252 226 288 61 240 211 217 242 225 229 227 238 237 247 131 175 201 227 219 121 198 207 204 149 166 172 178 177 185 178 183 189
328 325 323 322 317 314 284 289 36 325 295 276 264 255 277 31 277 206 216 206 217 227 220 238 226 245 251 160 191 200 232 31 140 201 173 222 169 162 174 190 181 190 181 189 187
326 324 325 322 317 291 273 8 316 318 268 285 220 231 224 221 240 234 199 207 215 224 227 231 238 223 251 252 255 237 259 111 228 180 242 269 79 119 28 230 196 191 187 195 191
324 324 327 329 297 337 285 11 331 321 277 211 187 214 190 210 224 249 180 220 233 228 230 239 243 245 216 255 246 258 207 208 167 251 276 206 192 154 184 186 209 203 196 192 194
321 322 324 326 309 285 9 325 323 267 285 146 131 113 210 202 94 200 172 210 229 228 248 238 240 257 253 256 248 269 283 330 322 269 260 245 241 64 145 215 281 239 215 197 185
317 317 331 281 209 260 297 310 278 237 249 142 142 194 193 215 238 138 198 227 231 244 237 259 251 228 253 243 279 271 274 274 239 272 270 268 235 139 161 194 258 279 269 208 181
312 307 303 302 252 342 314 280 234 245 98 193 193 170 206 191 231 161 201 199 218 219 236 227 256 244 278 276 250 242 251 254 250 241 251 271 28 202 195 200 180 214 233 195 198
313 307 247 233 261 280 279 249 250 257 283 74 327 186 210 207 206 179 202 211 222 224 232 216 215 232 203 225 246 226 244 242 243 253 262 44 139 193 226 208 214 225 214 184 189
310 261 233 235 218 244 250 230 233 259 355 22 202 258 206 239 254 189 200 215 208 224 238 243 224 202 216 207 228 254 225 261 273 283 281 109 114 195 203 223 202 164 153 175 182
313 285 251 153 171 222 240 250 273 318 9 321 276 214 250 190 190 246 207 218 226 210 231 262 284 252 178 207 209 245 260 222 224 267 285 189 191 209 201 210 138 147 150 167 178
254 242 104 149 193 227 238 239 250 258 267 261 275 296 266 301 199 227 240 217 213 237 211 242 265 265 169 184 229 205 246 262 277 228 254 270 110 119 58 305 163 140 167 164 174
293 261 133 175 211 228 242 247 276 306 262 256 289 300 307 311 278 237 275 224 198 215 235 214 250 254 245 206 200 259 213 231 251 255 278 296 251 152 166 169 95 139 185 154 185
280 306 145 216 234 233 226 250 264 274 244 242 241 250 270 278 293 279 284 53 130 254 248 208 229 257 264 195 190 220 250 233 238 260 242 270 228 170 122 119 158 150 150 112 302
276 259 195 196 255 286 286 222 245 219 267 273 264 275 294 263 264 280 260 151 126 250 25 304 232 229 245 236 199 198 228 262 268 257 258 247 274 185 167 134 135 115 122 163 208
248 268 18 275 213 236 263 284 240 245 191 248 252 255 257 254 257 227 272 172 165 161 221 245 248 253 267 279 290 210 204 215 242 268 276 281 54 45 129 97 114 129 151 161 184
295 344 349 299 295 297 269 250 265 269 241 206 245 256 229 263 326 301 321 290 337 172 214 223 254 276 267 267 262 276 278 208 211 234 258 275 127 116 112 107 145 201 152 160 188
8 329 278 289 284 258 250 249 248 261 272 252 288 255 254 18 357 322 316 309 307 312 222 213 245 240 241 253 246 230 247 258 217 210 229 248 118 127 143 160 187 156 162 167 146